Regional Weather Roundup
Issued by NWS

Home | Current Version | Previous Version | Text Only | Print | Product List | Glossary Off
Versions: 1 2 3 4 5 6 7 8 9 10 11 12 13 14 15 16 17 18 19 20 21 22 23 24 25 26 27 28 29 30 31 32 33 34 35 36 37 38 39 40 41 42 43 44 45 46 47 48 49 50

029
ASUS44 KLIX 201305
RWRLA
LOUISIANA WEATHER ROUNDUP
NATIONAL WEATHER SERVICE NEW ORLEANS LA
800 AM CDT SAT SEP 20 2014

NOTE: "FAIR" INDICATES FEW OR NO CLOUDS BELOW 12,000 FEET WITH NO
      SIGNIFICANT WEATHER AND/OR OBSTRUCTIONS TO VISIBILITY.
      SKY/WX - SKY CONDITION AND SIGNIFICANT WEATHER.
      TMP - AIR TEMPERATURE.    DP   - DEWPOINT TEMPERATURE.
      RH  - RELATIVE HUMIDITY.  PRES - PRESSURE.
      HX  - HEAT INDEX.         WCI  - WIND CHILL INDEX.

*  THESE STATIONS ARE NOT NWS OR FAA STATIONS AND ARE NOT UNDER
   NWS QUALITY CONTROL.

LAZ040-048-061>063-065-066-069-201400-
SOUTHEAST LOUISIANA

CITY           SKY/WX    TMP DP  RH WIND       PRES   REMARKS
N.O. AUDUBON     N/A     79  73  81 MISG        N/A
N.O. INTL ARPT SUNNY     79  71  76 E9        29.97R
N.O. LAKEFRONT MOSUNNY   78  71  79 E18       29.97R
N.O. DOWNTOWN* FAIR      77  68  73 NE3       29.97R
SLIDELL        SUNNY     73  68  84 NE6       29.98R
BATON ROUGE    SUNNY     71  68  90 NE7       29.99R
BOOTHVILLE     PTSUNNY   81  72  74 E12       29.95R
BELLE CHASSE   PTSUNNY   78  72  81 NE7       29.96R
BOGALUSA*        N/A     72  67  87 CALM      30.02S
GALLIANO*      NOT AVBL
NEW ROADS*     FAIR      72  69  89 CALM      30.00R
GONZALES*      FAIR      73  73  99 NE5       29.98R
HAMMOND*       SUNNY     73  66  78 NE6       30.01R
HOUMA*         MOSUNNY   75  66  73 NE6       29.95R
PORT FOURCHON* MOSUNNY   82  72  69 E12       29.96S

$$

LAZ041-044-053-054-201400-
SOUTHWEST LOUISIANA

CITY           SKY/WX    TMP DP  RH WIND       PRES   REMARKS
LAKE CHARLES   PTSUNNY   72  69  90 NE8       29.97R
LAFAYETTE      SUNNY     72  70  93 NE5       29.98R
PATTERSON      SUNNY     73  72  94 NE7       29.98
SALT POINT       N/A     76  72  87 VRB3      29.95R
NEW IBERIA     SUNNY     74  70  87 NE12      29.97S
CHENAULT AIRPK SUNNY     72  70  94 NE7       29.98R

$$

LAZ027-028-201400-
CENTRAL LOUISIANA

CITY           SKY/WX    TMP DP  RH WIND       PRES   REMARKS
FORT POLK      SUNNY     72  70  93 CALM      30.00R
ALEXANDRIA INT SUNNY     70  69  97 CALM      29.99R FOG
ALEXANDRIA     MOSUNNY   69  66  90 CALM      30.01R

$$

LAZ001-002-201400-
NORTHWEST LOUISIANA

CITY           SKY/WX    TMP DP  RH WIND       PRES   REMARKS
SHREVEPORT     SUNNY     71  69  93 CALM      30.02R
BARKSDALE AFB  SUNNY     70  70 100 CALM      30.02R
DTN SHREVEPORT SUNNY     71  32  23 CALM      30.02R FOG

$$

LAZ014-016-201400-
NORTHEAST LOUISIANA

CITY           SKY/WX    TMP DP  RH WIND       PRES   REMARKS
MONROE         SUNNY     70  68  93 CALM      30.02S
TALLULAH       SUNNY     69  68  96 CALM      30.02R

$$




USA.gov is the U.S. government's official web portal to all federal, state and local government web resources and services.